Location: Gamlingay
(52.1500°N, 0.1833°W)
Time: 07:19:47
(UTC+00:00)

Daily predictions for brighter satellites

Satellite Brightness Start Highest point End
(mag) Time Altitude Azimuth Time Altitude Azimuth Time Altitude Azimuth
Tsikada Rocket 4.5 20:45:04 10° SSW 20:51:26 71° WNW 20:57:53 10° N
ATLAS 2AS CENTAUR R/B 4.4 20:48:49 10° WNW 20:54:54 31° N 21:00:53 10° ENE
Cosmos 1656 Rocket 3.7 20:49:51 10° SSW 20:55:24 89° ESE 21:00:55 10° NNE
Cosmos 1378 Rocket 3.5 20:51:19 10° S 20:55:35 72° E 20:59:52 10° NNE
BlueWalker 3 2.0 20:53:23 10° W 20:57:04 73° N 21:00:44 10° E
NOSS 3-3 (A) 4.3 20:51:49 10° WSW 20:57:18 69° NW 21:03:55 10° NE
Okean O Rocket 2.6 20:55:24 10° S 20:59:35 45° W 21:03:50 10° NNW
Cosmos 1025 Rocket 3.6 20:56:07 10° SSE 21:00:10 40° E 21:04:16 10° NNE
In-Cosmos 22 Rocket 4.3 21:06:46 10° S 21:12:36 86° ESE 21:18:21 10° NNE
RESURS DK-1 4.3 21:09:35 10° N 21:12:38 20° NE 21:15:41 10° E
Cosmos 1503 Rocket 4.0 21:14:04 10° SSW 21:19:14 89° ESE 21:24:25 10° NNE
DNEPR-1 R/B 3.9 21:16:02 10° NW 21:20:15 57° NE 21:24:30 10° ESE
USA 215 3.8 21:16:28 10° E 21:22:53 60° N 21:29:19 10° WNW
Cosmos 2369 Rocket 2.2 21:18:48 10° SSW 21:24:30 87° ESE 21:30:13 10° NNE
ASTEX 1 3.3 21:21:19 10° N 21:26:13 78° E 21:31:04 10° S
Cosmos 1354 Rocket 4.0 21:23:31 10° SSW 21:28:44 79° ESE 21:33:59 10° NNE
SAR-Lupe-2 3.9 21:29:47 10° S 21:33:20 63° WSW 21:36:56 10° NNW
Cosmos 2297 Rocket 3.6 21:28:28 10° NNW 21:33:29 31° NE 21:38:29 10° ESE
ISS -3.8 21:31:01 10° W 21:34:21 71° SSW 21:37:41 10° ESE
COBE Rocket 4.1 21:31:39 10° NNE 21:36:11 49° E 21:40:36 10° S
Okean 2 Rocket 3.9 21:33:39 10° NNW 21:37:53 48° W 21:42:04 10° SSW
Ariane Rocket 3.2 21:33:12 10° S 21:38:15 73° WSW 21:43:19 10° NNW
Cosmos 2098 Rocket 3.7 21:35:35 10° NNE 21:38:22 27° ENE 21:40:47 14° SE
Cosmos 2263 4.2 21:40:11 10° SSW 21:45:51 88° WNW 21:51:32 10° NNE
CZ-4C R/B 2.0 21:41:56 10° SSW 21:46:10 51° SE 21:51:34 10° NE
Cosmos 923 Rocket 4.5 21:44:09 10° NNW 21:49:14 52° ENE 21:53:32 14° SE
Cosmos 1515 2.6 21:47:08 10° N 21:49:44 84° E 21:51:23 20° SSE
Lacrosse 5 rocket 2.5 21:46:21 10° WNW 21:50:03 40° N 21:53:47 10° ENE
Cosmos 44 3.0 21:46:58 10° SSW 21:51:12 59° SE 21:55:35 10° NE
Okean 1 Rocket 4.0 21:47:40 10° NNW 21:51:50 44° W 21:55:57 10° SSW
Helios 1A 4.4 21:48:27 10° N 21:52:06 36° WNW 21:55:43 10° SW
Cosmos 1975 Rocket 3.4 21:53:28 15° SSE 21:56:49 49° E 22:00:59 10° NNE
Cosmos 2221 Rocket 4.4 21:54:54 10° SSW 21:59:19 53° WNW 22:03:46 10° N
Nadezhda 4 Rocket 4.2 21:53:10 10° SSW 21:59:29 77° WNW 22:05:51 10° N
Cosmos 2228 3.3 21:56:06 10° N 22:00:14 52° ENE 22:03:10 18° SSE
Cosmos 1455 Rocket 3.2 21:59:10 10° NNW 22:03:28 68° W 22:07:03 14° S
Terra 4.2 22:01:11 10° SW 22:04:22 18° W 22:07:35 10° NW
Cosmos 2227 Rocket 3.8 22:01:17 10° NNW 22:06:10 28° NE 22:11:01 10° E
Cosmos 2285 Rocket 4.0 22:01:57 10° SSW 22:08:19 80° ESE 22:14:47 10° NNE
Gbstr 26 Del rocket 3.6 22:03:22 10° W 22:08:24 74° SSW 22:14:40 10° ESE
Cosmos 1867 3.9 22:03:42 10° SSW 22:08:51 45° ESE 22:14:02 10° NE
BREEZE M DEB (TANK) 3.3 22:06:49 10° SW 22:09:59 23° SSE 22:10:09 23° SSE
BREEZE-M DEB (TANK) 3.4 22:05:53 10° WSW 22:15:45 63° S 22:18:59 10° E
Cosmos 2026 Rocket 3.9 22:12:16 11° S 22:18:10 86° E 22:24:16 10° N
Iridium 82 4.3 22:15:23 10° N 22:18:48 85° W 22:20:46 22° S
Cosmos 1898 Rocket 3.5 22:16:18 12° S 22:21:00 63° ESE 22:26:13 10° NNE
ATLAS 5 CENTAUR R/B 4.3 22:19:01 10° NW 22:21:27 16° N 22:24:08 10° NE
Cosmos 1812 4.3 22:21:12 10° NW 22:23:42 22° W 22:26:11 10° SW
USA 81 4.0 22:25:23 16° S 22:29:43 90° NE 22:35:02 10° N
Cosmos 1553 Rocket 4.0 22:25:00 10° N 22:31:18 78° E 22:35:55 20° SSE
ARIANE 5 R/B 2.9 22:30:39 21° SE 22:33:28 59° ENE 22:37:50 10° N
BlueWalker 3 1.7 22:31:09 10° WNW 22:34:48 65° SSW 22:36:57 23° SE
Cosmos 1900 4.4 22:32:22 10° SW 22:37:24 89° WNW 22:42:34 10° NE
Cosmos 1092 Rocket 4.2 22:35:06 11° SSW 22:41:14 74° WNW 22:47:33 10° N
CZ-4C R/B 3.3 22:41:22 10° NNE 22:44:56 54° E 22:46:38 28° SSE
DELTA 2 DEB (DPAF) 3.7 22:41:04 10° NNE 22:45:00 88° ESE 22:47:31 21° SSW
ATLAS 2AS CENTAUR R/B 3.7 22:40:51 10° NW 22:47:24 45° NNE 22:53:49 10° E
SOZ 3.9 22:46:59 10° W 22:49:19 88° S 22:50:39 20° E
Cosmos 1536 Rocket 4.0 22:48:20 25° SSE 22:50:31 48° E 22:54:46 10° NNE
RESURS DK-1 2.3 22:46:34 10° NW 22:50:33 71° WSW 22:52:30 29° SSE
Cosmos 1656 3.8 22:47:10 20° S 22:50:57 55° ESE 22:56:21 10° NE
S3M 4.3 22:45:56 10° N 22:52:12 59° ENE 22:56:23 21° SSE
Cosmos 2263 Rocket 3.7 22:48:44 10° NNW 22:53:46 32° NE 22:58:45 10° ESE
Cosmos 1544 Rocket 3.8 22:49:38 10° NNW 22:53:58 65° W 22:56:31 24° S
Cosmos 1606 Rocket 4.1 22:52:15 10° N 22:56:30 47° ENE 22:58:50 24° SE
Cosmos 372 Rocket 4.4 22:55:21 10° SW 23:00:23 62° WNW 23:05:27 10° NNE
Meteor 2-20 Rocket 4.4 22:55:10 10° NNW 23:01:16 81° W 23:05:05 23° S
Cosmos 1400 Rocket 2.8 22:57:28 10° NNW 23:01:17 66° W 23:03:02 29° S
Cosmos 2058 3.2 23:01:15 30° SSE 23:02:51 49° E 23:06:41 10° NNE
USA 215 3.3 22:59:10 10° ESE 23:05:43 89° NE 23:12:19 10° WNW
Cosmos 1782 2.6 23:04:15 10° N 23:07:57 73° E 23:09:26 34° SSE
Cosmos 2369 Rocket 4.4 23:04:31 10° W 23:09:14 26° NW 23:13:57 10° NNE
Cosmos 2112 Rocket 4.2 23:04:07 10° NNW 23:09:22 65° WSW 23:12:22 25° S
ISS -2.5 23:07:54 10° W 23:10:32 26° SW 23:10:32 26° SW
Cosmos 2098 Rocket 4.3 23:13:49 10° NW 23:16:23 22° W 23:18:12 15° SW
Cosmos 2297 Rocket 2.3 23:12:21 10° NW 23:17:59 67° WSW 23:21:13 26° S
Cosmos 2219 4.4 23:13:42 10° NNW 23:18:59 37° NE 23:24:12 10° ESE
Cosmos 1937 Rocket 3.8 23:14:20 12° SW 23:19:01 64° WNW 23:24:08 10° NNE
Cosmos 1862 3.9 23:18:17 30° SE 23:19:23 38° E 23:22:49 10° NNE
Cosmos 1726 Rocket 3.9 23:15:11 10° N 23:19:45 60° ENE 23:22:11 27° SSE
Cosmos 1680 Rocket 4.1 23:14:51 10° NW 23:19:53 46° WSW 23:22:44 24° SSW
Cosmos 2058 Rocket 4.2 23:17:20 10° N 23:21:26 34° ENE 23:23:59 19° SE
PSLV R/B 4.2 23:17:54 10° NNE 23:22:26 47° E 23:24:32 28° SSE
ALOS 2 2.6 23:22:00 30° S 23:24:09 82° WSW 23:28:34 10° NNW
Lacrosse 5 rocket 1.3 23:23:53 10° WNW 23:27:49 75° NNE 23:31:05 14° ESE
Cosmos 1980 Rocket 3.6 23:28:23 18° SE 23:30:30 22° ESE 23:34:41 10° NE
Cosmos 1356 Rocket 3.7 23:29:28 10° N 23:33:26 57° ENE 23:35:17 29° SE
CZ-4C R/B 3.3 23:29:58 10° W 23:34:35 44° NNW 23:40:29 10° NE
MetOp-A 4.2 23:33:09 25° SW 23:34:39 36° W 23:38:11 10° NNW
Cosmos 1697 Rocket 3.1 23:32:03 27° SSE 23:34:47 46° ESE 23:40:12 10° NE
Cosmos 2360 4.2 23:33:06 21° SSW 23:37:00 80° ESE 23:42:44 10° NNE
Cosmos 1892 Rocket 3.9 23:39:39 31° SSE 23:41:24 51° E 23:45:36 10° NNE
CZ-2C R/B 4.1 23:36:53 10° ESE 23:41:44 32° ENE 23:46:38 10° N
Cosmos 1441 Rocket 3.7 23:44:49 33° SE 23:45:39 39° E 23:48:54 10° NNE
GEOS 3 Rocket 3.8 23:43:50 10° NE 23:49:00 53° SE 23:51:46 26° SSW
Meteor 2-3 Rocket 4.1 23:46:44 26° SSE 23:49:53 54° E 23:55:30 10° NNE
Cosmos 2227 Rocket 2.2 23:45:06 10° NNW 23:50:49 78° WSW 23:54:06 26° SSE
